Find Starlink 3518

NORAD ID: 51732 Int'l Des: 2022-016 Owner: SPXS Country: US Constellation: starlink operational
LEOCIRCULAR

Live Position

Loading 3D Globe...

About Starlink 3518

Description loading...

Upcoming Passes

Passes for default location (London). Set your location on the main map for personalized predictions.

Altitude History

Loading altitude history...

Two-Line Element Set

1 51732U 22016U 26123.57618847 -.00000216 00000-0 45511-5 0 9990
2 51732 53.2178 72.7284 0001520 81.8131 278.3033 15.08837997232994
Epoch: May 3, 2026 • Age: 13 hours

Current Status

Altitude 539.6 km
Velocity 7.59 km/s
Sub-Earth Point 8.61°N, 175.89°E
Launch Date Feb 21, 2022
Age 4.1 years
Type internet

Technical Details

Classification Payload
Mass 297.00 kg
Dry Mass 275.00 kg
Total Mass 297.00 kg
Length 0.20 m
Diameter 2.80 m
Span 9.00 m
Shape Box + pan
Manufacturer SPXS
Bus Type Starlink
Phase Status In Orbit
Owner/State SPXS/US

Most Searched